SB KEPS @ AMSAT $ORB07116.O Orbital Elements 07116.OSCAR
HR AMSAT ORBITAL ELEMENTS FOR OSCAR SATELLITES FROM WA5QGD FORT WORTH,TX April 26, 2007 Send Subscribe/unsubscribe to KEPS at http://www.amsat.org/mailman/listinfo/keps BID: ORB07116.O TO ALL RADIO AMATEURS BT
Satellite: AO-07 Catalog number: 07530 Epoch time: 07115.54904252 Element set: 859 Inclination: 101.5195 deg RA of node: 155.0964 deg Eccentricity: 0.0011995 Arg of perigee: 359.8061 deg Mean anomaly: 000.3006 deg Mean motion: 12.53572779 rev/day Decay rate: -2.8e-07 rev/day^2 Epoch rev: 48452 Checksum: 300
Satellite: AO-10 Catalog number: 14129 Epoch time: 07115.60029208 Element set: 375 Inclination: 026.6578 deg RA of node: 280.2070 deg Eccentricity: 0.6058353 Arg of perigee: 016.9405 deg Mean anomaly: 356.6049 deg Mean motion: 02.05869453 rev/day Decay rate: -1.7e-07 rev/day^2 Epoch rev: 17948 Checksum: 306
Satellite: UO-11 Catalog number: 14781 Epoch time: 07115.50773298 Element set: 0357 Inclination: 098.1924 deg RA of node: 137.1854 deg Eccentricity: 0.0009039 Arg of perigee: 348.4674 deg Mean anomaly: 011.6316 deg Mean motion: 14.79544310 rev/day Decay rate: 2.82e-06 rev/day^2 Epoch rev: 24194 Checksum: 310
Satellite: RS-15 Catalog number: 23439 Epoch time: 07115.92066405 Element set: 0042 Inclination: 064.8151 deg RA of node: 091.4421 deg Eccentricity: 0.0160845 Arg of perigee: 200.1562 deg Mean anomaly: 159.2959 deg Mean motion: 11.27552032 rev/day Decay rate: -3.9e-07 rev/day^2 Epoch rev: 50780 Checksum: 277
Satellite: FO-29 Catalog number: 24278 Epoch time: 07115.91846388 Element set: 0494 Inclination: 098.5447 deg RA of node: 082.5946 deg Eccentricity: 0.0350149 Arg of perigee: 218.6448 deg Mean anomaly: 138.9158 deg Mean motion: 13.52929183 rev/day Decay rate: -4.6e-07 rev/day^2 Epoch rev: 52783 Checksum: 363
Satellite: SO-33 Catalog number: 25509 Epoch time: 07115.55903438 Element set: 0913 Inclination: 031.4326 deg RA of node: 163.2882 deg Eccentricity: 0.0355352 Arg of perigee: 327.2060 deg Mean anomaly: 030.6975 deg Mean motion: 14.28161788 rev/day Decay rate: 1.05e-06 rev/day^2 Epoch rev: 44372 Checksum: 295
Satellite: AO-40 Catalog number: 26609 Epoch time: 07115.78869021 Element set: 868 Inclination: 005.1371 deg RA of node: 152.8253 deg Eccentricity: 0.7988954 Arg of perigee: 307.4972 deg Mean anomaly: 003.9410 deg Mean motion: 01.25586679 rev/day Decay rate: -3.0e-08 rev/day^2 Epoch rev: 2978 Checksum: 337
Satellite: VO-52 Catalog number: 28650 Epoch time: 07115.28594778 Element set: 0611 Inclination: 097.8336 deg RA of node: 187.1805 deg Eccentricity: 0.0028340 Arg of perigee: 067.0819 deg Mean anomaly: 293.3436 deg Mean motion: 14.81299074 rev/day Decay rate: 1.08e-06 rev/day^2 Epoch rev: 10658 Checksum: 328
Satellite: PO-63 Catalog number: 29712 Epoch time: 07116.51334758 Element set: 307 Inclination: 097.9248 deg RA of node: 176.3827 deg Eccentricity: 0.0013001 Arg of perigee: 299.5518 deg Mean anomaly: 060.4398 deg Mean motion: 14.79648072 rev/day Decay rate: 5.85e-06 rev/day^2 Epoch rev: 1569 Checksum: 335
/EX SB KEPS @ AMSAT $ORB07116.D Orbital Elements 07116.MICROS
HR AMSAT ORBITAL ELEMENTS FOR THE MICROSATS FROM WA5QGD FORT WORTH,TX April 26, 2007 Send SUBSCRIBE KEPS/UNSUBSCRIBE KEPS to majordomo@amsat.org only BID: ORB07116.D TO ALL RADIO AMATEURS BT
Satellite: AO-16 Catalog number: 20439 Epoch time: 07115.46757793 Element set: 0020 Inclination: 098.1946 deg RA of node: 112.9325 deg Eccentricity: 0.0011164 Arg of perigee: 349.8202 deg Mean anomaly: 010.2760 deg Mean motion: 14.31757023 rev/day Decay rate: -6.0e-08 rev/day^2 Epoch rev: 90100 Checksum: 268
Satellite: LO-19 Catalog number: 20442 Epoch time: 07115.58474898 Element set: 0947 Inclination: 098.1817 deg RA of node: 122.4626 deg Eccentricity: 0.0011981 Arg of perigee: 348.0878 deg Mean anomaly: 012.0019 deg Mean motion: 14.31997893 rev/day Decay rate: 1.8e-07 rev/day^2 Epoch rev: 90116 Checksum: 328
Satellite: AO-27 Catalog number: 22825 Epoch time: 07115.90137053 Element set: 0670 Inclination: 098.3260 deg RA of node: 088.0739 deg Eccentricity: 0.0009415 Arg of perigee: 058.8106 deg Mean anomaly: 301.3986 deg Mean motion: 14.29205472 rev/day Decay rate: -1.16e-06 rev/day^2 Epoch rev: 70802 Checksum: 295
Satellite: IO-26 Catalog number: 22826 Epoch time: 07115.88768844 Element set: 0367 Inclination: 098.3197 deg RA of node: 089.1540 deg Eccentricity: 0.0009936 Arg of perigee: 055.9268 deg Mean anomaly: 304.2855 deg Mean motion: 14.29451865 rev/day Decay rate: 4.0e-08 rev/day^2 Epoch rev: 70810 Checksum: 341
Satellite: PO-28 Catalog number: 22829 Epoch time: 07115.86925143 Element set: 0644 Inclination: 098.3088 deg RA of node: 090.3100 deg Eccentricity: 0.0010616 Arg of perigee: 031.5728 deg Mean anomaly: 328.6083 deg Mean motion: 14.30151789 rev/day Decay rate: 1.05e-06 rev/day^2 Epoch rev: 70833 Checksum: 294
Satellite: GO-32 Catalog number: 25397 Epoch time: 07115.64011668 Element set: 0286 Inclination: 098.4180 deg RA of node: 165.1406 deg Eccentricity: 0.0001886 Arg of perigee: 049.3005 deg Mean anomaly: 310.8339 deg Mean motion: 14.23123610 rev/day Decay rate: -1.13e-06 rev/day^2 Epoch rev: 45668 Checksum: 285
Satellite: MO-46 Catalog number: 26548 Epoch time: 07115.11804592 Element set: 0779 Inclination: 064.5579 deg RA of node: 346.8419 deg Eccentricity: 0.0021595 Arg of perigee: 204.2983 deg Mean anomaly: 155.7107 deg Mean motion: 14.83126647 rev/day Decay rate: 1.51e-06 rev/day^2 Epoch rev: 35567 Checksum: 334
Satellite: NO-44 Catalog number: 26931 Epoch time: 07115.89362734 Element set: 0573 Inclination: 067.0522 deg RA of node: 282.1937 deg Eccentricity: 0.0007105 Arg of perigee: 274.0046 deg Mean anomaly: 086.0237 deg Mean motion: 14.29482074 rev/day Decay rate: 2.35e-06 rev/day^2 Epoch rev: 29062 Checksum: 296
Satellite: SO-50 Catalog number: 27607 Epoch time: 07115.85236762 Element set: 0298 Inclination: 064.5577 deg RA of node: 243.9259 deg Eccentricity: 0.0048003 Arg of perigee: 015.5903 deg Mean anomaly: 344.6667 deg Mean motion: 14.71249436 rev/day Decay rate: -1.96e-06 rev/day^2 Epoch rev: 23342 Checksum: 323
Satellite: CO-55 Catalog number: 27844 Epoch time: 07115.76975062 Element set: 0013 Inclination: 098.7198 deg RA of node: 124.7875 deg Eccentricity: 0.0008974 Arg of perigee: 241.4421 deg Mean anomaly: 118.5860 deg Mean motion: 14.20505692 rev/day Decay rate: 4.6e-07 rev/day^2 Epoch rev: 19803 Checksum: 322
Satellite: CO-57 Catalog number: 27848 Epoch time: 07115.50186174 Element set: 0974 Inclination: 098.7186 deg RA of node: 123.7371 deg Eccentricity: 0.0008986 Arg of perigee: 246.0024 deg Mean anomaly: 114.0209 deg Mean motion: 14.20325193 rev/day Decay rate: 5.0e-08 rev/day^2 Epoch rev: 19797 Checksum: 316
Satellite: AO-51 Catalog number: 28375 Epoch time: 07115.57195381 Element set: 799 Inclination: 098.1190 deg RA of node: 157.5899 deg Eccentricity: 0.0084644 Arg of perigee: 342.6562 deg Mean anomaly: 017.1740 deg Mean motion: 14.40563647 rev/day Decay rate: 1.3e-07 rev/day^2 Epoch rev: 14813 Checksum: 327
Satellite: CO-56 Catalog number: 28941 Epoch time: 07115.85600115 Element set: 0423 Inclination: 098.1359 deg RA of node: 171.1820 deg Eccentricity: 0.0234719 Arg of perigee: 098.2523 deg Mean anomaly: 264.5338 deg Mean motion: 15.37755878 rev/day Decay rate: 2.3465e-04 rev/day^2 Epoch rev: 06538 Checksum: 331
Satellite: HO-59 Catalog number: 29484 Epoch time: 07115.67130763 Element set: 0282 Inclination: 098.2929 deg RA of node: 157.5895 deg Eccentricity: 0.0223814 Arg of perigee: 094.0722 deg Mean anomaly: 268.6197 deg Mean motion: 15.47050063 rev/day Decay rate: 4.6120e-04 rev/day^2 Epoch rev: 03294 Checksum: 332
Satellite: NO-60 Catalog number: 29661 Epoch time: 07115.91114628 Element set: 0204 Inclination: 051.6394 deg RA of node: 002.3594 deg Eccentricity: 0.0009119 Arg of perigee: 153.2337 deg Mean anomaly: 206.9145 deg Mean motion: 16.01979533 rev/day Decay rate: 1.56315e-03 rev/day^2 Epoch rev: 02003 Checksum: 281
Satellite: NO-61 Catalog number: 29664 Epoch time: 07115.94608348 Element set: 0127 Inclination: 051.6354 deg RA of node: 007.1163 deg Eccentricity: 0.0015426 Arg of perigee: 135.2864 deg Mean anomaly: 224.9372 deg Mean motion: 15.88221499 rev/day Decay rate: 2.4744e-04 rev/day^2 Epoch rev: 01984 Checksum: 318
Satellite: CP4 Catalog number: 31122 Epoch time: 07116.95535783 Element set: 19 Inclination: 098.0863 deg RA of node: 191.8862 deg Eccentricity: 0.0086130 Arg of perigee: 183.4625 deg Mean anomaly: 176.6003 deg Mean motion: 14.54993817 rev/day Decay rate: 1.84e-06 rev/day^2 Epoch rev: 140 Checksum: 300
Satellite: CP3 Catalog number: 31128 Epoch time: 07115.73584916 Element set: 0012 Inclination: 098.0833 deg RA of node: 190.6632 deg Eccentricity: 0.0103077 Arg of perigee: 187.2464 deg Mean anomaly: 172.7268 deg Mean motion: 14.51824016 rev/day Decay rate: -4.7e-07 rev/day^2 Epoch rev: 00121 Checksum: 277
Satellite: LIBERT Catalog number: 31129 Epoch time: 07116.49345016 Element set: 32 Inclination: 098.0829 deg RA of node: 191.3915 deg Eccentricity: 0.0102728 Arg of perigee: 184.9045 deg Mean anomaly: 175.1150 deg Mean motion: 14.51909518 rev/day Decay rate: 3.84e-06 rev/day^2 Epoch rev: 130 Checksum: 275
/EX SB KEPS @ AMSAT $ORB07116.W Orbital Elements 07116.WEATHER
HR AMSAT ORBITAL ELEMENTS FOR WEATHER SATELLITES FROM WA5QGD FORT WORTH,TX April 26, 2007 Send SUBSCRIBE KEPS/UNSUBSCRIBE KEPS to majordomo@amsat.org only BID: ORB07116.W TO ALL RADIO AMATEURS BT
Satellite: NOAA-10 Catalog number: 16969 Epoch time: 07115.58724921 Element set: 0634 Inclination: 098.7485 deg RA of node: 132.7326 deg Eccentricity: 0.0012008 Arg of perigee: 325.2748 deg Mean anomaly: 034.7646 deg Mean motion: 14.27322290 rev/day Decay rate: -1.01e-06 rev/day^2 Epoch rev: 07172 Checksum: 296
